• En España
  • Lista de países
  • Para 7 días
  • Temperatura del agua
  • Mapa Satelital
  • El tiempo en el mapa
  • Informadores
  • user-avatar
    Iniciar sesión

    Tiempo cada hora Dobrich

    Hoy, 15 Noviembre, Jueves

    Tiempo Temperatura Precipitaciones Viento Presión Humedad
    00:00 +7°C° 0.1 mm 3 mps 744 mmHg 76%
    01:00 +5°C° 0.1 mm 3 mps 744 mmHg 79%
    02:00 +4°C° 0 mm 4 mps 743 mmHg 81%
    03:00 +4°C° 0.4 mm 4 mps 743 mmHg 82%
    04:00 +4°C° 0.4 mm 4 mps 743 mmHg 82%
    05:00 +3°C° 0.4 mm 5 mps 743 mmHg 83%
    06:00 +3°C° 0.4 mm 5 mps 743 mmHg 83%
    07:00 +3°C° 0.4 mm 5 mps 743 mmHg 84%
    08:00 +3°C° 0 mm 5 mps 743 mmHg 83%
    09:00 +3°C° 0.1 mm 6 mps 744 mmHg 80%
    10:00 +4°C° 0.1 mm 6 mps 744 mmHg 77%
    11:00 +5°C° 0.1 mm 6 mps 744 mmHg 74%
    12:00 +5°C° 0.1 mm 6 mps 744 mmHg 73%
    13:00 +5°C° 0.1 mm 6 mps 744 mmHg 73%
    14:00 +5°C° 0 mm 6 mps 743 mmHg 72%
    15:00 +5°C° 0 mm 6 mps 744 mmHg 73%
    16:00 +5°C° 0 mm 6 mps 744 mmHg 73%
    17:00 +5°C° 0 mm 6 mps 744 mmHg 74%
    18:00 +4°C° 0 mm 6 mps 744 mmHg 73%
    19:00 +4°C° 0 mm 6 mps 744 mmHg 73%
    20:00 +3°C° 0 mm 6 mps 744 mmHg 73%
    21:00 +3°C° 0 mm 6 mps 744 mmHg 74%
    22:00 +2°C° 0 mm 6 mps 745 mmHg 76%
    23:00 +1°C° 0 mm 6 mps 745 mmHg 78%

    Mañana, 16 Noviembre, Viernes

    Tiempo Temperatura Precipitaciones Viento Presión Humedad
    00:00 +1°C° 0 mm 6 mps 745 mmHg 80%
    01:00 +1°C° 0 mm 6 mps 745 mmHg 82%
    02:00 -1°C° 0 mm 6 mps 745 mmHg 84%
    03:00 -1°C° 0 mm 6 mps 745 mmHg 84%
    04:00 -1°C° 0 mm 6 mps 745 mmHg 85%
    05:00 -2°C° 0 mm 6 mps 745 mmHg 85%
    06:00 -1°C° 0 mm 6 mps 746 mmHg 82%
    07:00 -1°C° 0 mm 6 mps 746 mmHg 79%
    08:00 -1°C° 0 mm 6 mps 746 mmHg 77%
    09:00 -1°C° 0 mm 7 mps 746 mmHg 75%
    10:00 0°C° 0 mm 7 mps 747 mmHg 73%
    11:00 0°C° 0 mm 7 mps 747 mmHg 71%
    12:00 0°C° 0 mm 7 mps 747 mmHg 68%
    13:00 0°C° 0 mm 7 mps 747 mmHg 64%
    14:00 0°C° 0 mm 7 mps 747 mmHg 60%
    15:00 -1°C° 0 mm 7 mps 747 mmHg 63%
    16:00 -1°C° 0 mm 7 mps 747 mmHg 66%
    17:00 -2°C° 0 mm 7 mps 747 mmHg 69%
    18:00 -2°C° 0 mm 6 mps 747 mmHg 72%
    19:00 -3°C° 0 mm 6 mps 748 mmHg 75%
    20:00 -3°C° 0 mm 6 mps 748 mmHg 77%
    21:00 -3°C° 0 mm 6 mps 748 mmHg 79%
    22:00 -3°C° 0 mm 6 mps 748 mmHg 80%
    23:00 -3°C° 0 mm 6 mps 747 mmHg 82%

    Pasado mañana, 17 Noviembre, Sábado

    Tiempo Temperatura Precipitaciones Viento Presión Humedad
    00:00 -3°C° 0.2 mm 6 mps 747 mmHg 83%
    01:00 -3°C° 0.2 mm 6 mps 748 mmHg 85%
    02:00 -3°C° 0.2 mm 6 mps 748 mmHg 87%
    03:00 -3°C° 0.4 mm 6 mps 747 mmHg 88%
    04:00 -3°C° 0.4 mm 7 mps 747 mmHg 89%
    05:00 -3°C° 0.4 mm 7 mps 747 mmHg 90%
    06:00 -3°C° 0.8 mm 7 mps 747 mmHg 90%
    07:00 -2°C° 0.8 mm 7 mps 747 mmHg 91%
    08:00 -2°C° 0.8 mm 7 mps 747 mmHg 91%
    09:00 -2°C° 0.9 mm 7 mps 747 mmHg 91%
    10:00 -1°C° 0.9 mm 7 mps 748 mmHg 92%
    11:00 -1°C° 0.9 mm 8 mps 748 mmHg 92%
    12:00 -1°C° 0.3 mm 8 mps 747 mmHg 91%
    13:00 -1°C° 0.3 mm 8 mps 747 mmHg 91%
    14:00 -1°C° 0.3 mm 8 mps 747 mmHg 91%
    15:00 -1°C° 0.1 mm 8 mps 747 mmHg 90%
    16:00 -1°C° 0.1 mm 8 mps 747 mmHg 90%
    17:00 -1°C° 0.1 mm 8 mps 747 mmHg 90%
    18:00 -1°C° 0.1 mm 8 mps 747 mmHg 89%
    19:00 -1°C° 0.1 mm 8 mps 747 mmHg 89%
    20:00 -1°C° 0.1 mm 8 mps 747 mmHg 89%
    21:00 -1°C° 0.2 mm 7 mps 747 mmHg 89%
    22:00 -1°C° 0.2 mm 7 mps 747 mmHg 88%
    23:00 -1°C° 0.2 mm 7 mps 747 mmHg 88%

    18 Noviembre, Domingo

    Tiempo Temperatura Precipitaciones Viento Presión Humedad
    00:00 -1°C° 0.2 mm 6 mps 747 mmHg 88%
    01:00 -1°C° 0.2 mm 6 mps 747 mmHg 88%
    02:00 -2°C° 0.2 mm 6 mps 747 mmHg 87%
    03:00 -2°C° 0.1 mm 6 mps 746 mmHg 87%
    04:00 -1°C° 0.1 mm 5 mps 746 mmHg 87%
    05:00 -1°C° 0.1 mm 5 mps 746 mmHg 87%
    06:00 -1°C° 0.1 mm 5 mps 746 mmHg 87%
    07:00 -2°C° 0.1 mm 5 mps 746 mmHg 86%
    08:00 -2°C° 0.1 mm 4 mps 746 mmHg 86%
    09:00 -1°C° 0 mm 4 mps 746 mmHg 84%
    10:00 -1°C° 0 mm 4 mps 746 mmHg 82%
    11:00 0°C° 0 mm 4 mps 746 mmHg 80%
    12:00 +1°C° 0 mm 4 mps 745 mmHg 78%
    13:00 +2°C° 0 mm 3 mps 744 mmHg 76%
    14:00 +3°C° 0 mm 3 mps 744 mmHg 74%
    15:00 +3°C° 0 mm 3 mps 743 mmHg 76%
    16:00 +2°C° 0 mm 3 mps 743 mmHg 77%
    17:00 +3°C° 0 mm 2 mps 743 mmHg 79%
    18:00 +3°C° 0 mm 2 mps 742 mmHg 79%
    19:00 +3°C° 0 mm 2 mps 742 mmHg 79%
    20:00 +3°C° 0 mm 2 mps 742 mmHg 79%
    21:00 +2°C° 0 mm 3 mps 741 mmHg 81%
    22:00 +2°C° 0 mm 3 mps 741 mmHg 82%
    23:00 +2°C° 0 mm 3 mps 741 mmHg 84%

    19 Noviembre, Lunes

    Tiempo Temperatura Precipitaciones Viento Presión Humedad
    00:00 +2°C° 0 mm 3 mps 740 mmHg 85%
    01:00 +2°C° 0 mm 3 mps 740 mmHg 86%
    02:00 +1°C° 0 mm 4 mps 740 mmHg 88%
    03:00 +3°C° 0.3 mm 4 mps 739 mmHg 88%
    04:00 +3°C° 0.3 mm 4 mps 739 mmHg 89%
    05:00 +2°C° 0.3 mm 5 mps 739 mmHg 90%
    06:00 +3°C° 0.3 mm 5 mps 739 mmHg 91%
    07:00 +3°C° 0.3 mm 5 mps 739 mmHg 91%
    08:00 +3°C° 0.3 mm 5 mps 739 mmHg 91%
    09:00 +5°C° 0.1 mm 5 mps 739 mmHg 88%
    10:00 +6°C° 0.1 mm 5 mps 739 mmHg 85%
    11:00 +7°C° 0.1 mm 6 mps 739 mmHg 83%
    12:00 +7°C° 0.1 mm 6 mps 739 mmHg 83%
    13:00 +7°C° 0.1 mm 6 mps 738 mmHg 84%
    14:00 +7°C° 0.1 mm 6 mps 738 mmHg 84%
    15:00 +7°C° 0 mm 6 mps 738 mmHg 86%
    16:00 +7°C° 0 mm 5 mps 738 mmHg 88%
    17:00 +7°C° 0 mm 5 mps 738 mmHg 90%
    18:00 +7°C° 0.1 mm 4 mps 738 mmHg 91%
    19:00 +7°C° 0.1 mm 4 mps 738 mmHg 93%
    20:00 +8°C° 0.1 mm 3 mps 738 mmHg 94%
    21:00 +8°C° 0 mm 2 mps 738 mmHg 95%
    22:00 +8°C° 0 mm 2 mps 738 mmHg 95%
    23:00 +9°C° 0 mm 1 mps 738 mmHg 96%

    20 Noviembre, Martes

    Tiempo Temperatura Precipitaciones Viento Presión Humedad
    00:00 +8°C° 0 mm 1 mps 739 mmHg 96%
    01:00 +8°C° 0 mm 1 mps 739 mmHg 95%
    02:00 +7°C° 0 mm 0 mps 739 mmHg 95%
    03:00 +7°C° 0 mm 0 mps 739 mmHg 95%
    04:00 +8°C° 0 mm 1 mps 739 mmHg 94%
    05:00 +8°C° 0 mm 1 mps 739 mmHg 94%
    06:00 +8°C° 0 mm 1 mps 739 mmHg 94%
    07:00 +9°C° 0 mm 1 mps 739 mmHg 94%
    08:00 +8°C° 0 mm 2 mps 739 mmHg 94%
    09:00 +9°C° 0 mm 2 mps 739 mmHg 92%
    10:00 +10°C° 0 mm 3 mps 739 mmHg 90%
    11:00 +11°C° 0 mm 3 mps 740 mmHg 88%
    12:00 +12°C° 0 mm 4 mps 739 mmHg 89%
    13:00 +12°C° 0 mm 4 mps 739 mmHg 89%
    14:00 +12°C° 0 mm 4 mps 739 mmHg 90%
    15:00 +12°C° 0.1 mm 4 mps 738 mmHg 92%
    16:00 +12°C° 0.1 mm 4 mps 738 mmHg 94%
    17:00 +12°C° 0.1 mm 4 mps 738 mmHg 96%
    18:00 +12°C° 0.3 mm 4 mps 738 mmHg 95%
    19:00 +12°C° 0.3 mm 5 mps 738 mmHg 94%
    20:00 +13°C° 0.3 mm 5 mps 738 mmHg 93%
    21:00 +13°C° 0.2 mm 5 mps 737 mmHg 92%
    22:00 +13°C° 0.2 mm 6 mps 737 mmHg 91%
    23:00 +13°C° 0.2 mm 6 mps 737 mmHg 90%
    Mostrar más